Accueil
METAR-TAF:

METAR-TAF

Aéroports :

Reims, France

Aérodrome de Reims - Prunay

latitude: 49-12-31N, longitude: 004-09-24E, altitude: 95 m

Observation

Le bulletin a été fait il y a 35 minutes, à 06:00 UTC
Vent 2 kt de direction variable
Température 13°C
Humidité 94%
Pression 1012 hPa
Visibilité 10 km ou plus
Quelques nuages à une hauteur de 1000 ft
Nuages fragmentés à une hauteur de 4300 ft
Nuages fragmentés à une hauteur de 5400 ft

METAR: LFQA 210600Z AUTO VRB02KT 9999 FEW010 BKN043 BKN054 13/12 Q1012

Heure: 08:35 (06:35 UTC)


TAF: absent

Observations et prévisions météorologiques de plus de 4000 aéroports (messages METAR et TAF).

Les stations disponibles sont représentées par des disques jaunes et rouges sur la carte.

Passer la souris dessus pour voir le nom de la station.

Cliquer dessus pour voir les observations et prévisions météorologiques.

Pour changer de carte: cliquez sur les boutons verts avec une croix noire pour zoomer, sur le bouton vert avec un tiret pour effectuer un zoom arrière, ou sur les flèches vertes pour les cartes adjacentes.


METAR-TAF: